Regional Weather Roundup
Issued by NWS

Home | Current Version | Previous Version | Text Only | Print | Product List | Glossary Off
Versions: 1 2 3 4 5 6 7 8 9 10 11 12 13 14 15 16 17 18 19 20 21 22 23 24 25 26 27 28 29 30 31 32 33 34 35 36 37 38 39 40 41 42 43 44 45 46 47 48 49 50

841
ASUS43 KIND 161059
RWRIN

WEATHER ROUNDUP FOR INDIANA
NATIONAL WEATHER SERVICE INDIANAPOLIS IN
600 AM EST TUE JAN 16 2018

NOTE: "FAIR" INDICATES FEW OR NO CLOUDS BELOW 12,000 FEET WITH NO
SIGNIFICANT WEATHER AND/OR OBSTRUCTIONS TO VISIBILITY.

* - STATION DOES NOT REPORT WEATHER SUCH AS PRECIPITATION OR FOG.

+ - STATION NOT QUALITY CONTROLLED BY THE NATIONAL WEATHER SERVICE.
    USE DATA WITH CAUTION...ESPECIALLY DEWPOINT AND RELATIVE
    HUMIDITY OBSERVATIONS.

INZ001>003-010>013-019-020-161200-
NORTHWEST INDIANA

CITY           SKY/WX    TMP DP  RH WIND       PRES   REMARKS
GARY /AIRPORT/ LGT SNOW   5   0  78 SW10      30.39S WCI -10
KNOX *+        FAIR       1  -4  78 SW12      30.41R WCI -15
MONTICELLO +   FLURRIES  -1  -8  75 SW13      30.44F WCI -20

$$

LMZ046-743>745-161200-
SOUTHERN LAKE MICHIGAN

STATION/POSITION TIME  TEMP    WIND        PRES    WAVE
                       AIR SEA DIR/SP/G            HT
                 (UTC) (F)     (DEG/KT/KT) (MB)    (FT)
BURNS HARBOR     1040    3     210/ 13/ 16 1029.1R
MICHIGAN CITY    1030          190/ 11/ 14   N/A

$$

INZ004-005-014>016-021>024-161200-
NORTH CENTRAL INDIANA

CITY           SKY/WX    TMP DP  RH WIND       PRES   REMARKS
GOSHEN         CLOUDY     0  -5  79 SW7       30.38R WCI -13
PERU/GRISSOM   CLOUDY    -1  -5  82 W16       30.42R WCI -21
SOUTH BEND     CLOUDY     0  -4  83 SW10      30.37R WCI -16

$$

INZ006>009-017-018-025>027-161200-
NORTHEAST INDIANA

CITY           SKY/WX    TMP DP  RH WIND       PRES   REMARKS
FORT WAYNE     FAIR       0  -5  79 SW12      30.42R WCI -17
KENDALLVILLE + CLOUDY    -1  -4  85 SW6       30.37R WCI -12

$$

INZ028-029-035-036-043>045-051>053-161200-
WEST CENTRAL INDIANA

CITY           SKY/WX    TMP DP  RH WIND       PRES   REMARKS
GREENCASTLE +  FAIR      -2  -8  78 W3        30.50R HAZE
LAFAYETTE      CLOUDY    -2  -6  83 SW8       30.48S WCI -17
TERRE HAUTE    FAIR      -2 -10  69 W8        30.54R WCI -17

$$

INZ030>032-037>040-046>048-054>057-064-065-161200-
CENTRAL INDIANA

CITY           SKY/WX    TMP DP  RH WIND       PRES   REMARKS
GREENWOOD *+   FAIR       0  -5  76 W7        30.49R WCI -13
INDIANAPOLIS   FAIR      -3  -7  82 SW10      30.48R WCI -20
-EAGLE CREEK   FAIR      -1  -7  75 SW5       30.48R WCI -11
MT COMFORT *+  FAIR      -2  -4  92 W12       30.47R WCI -20
SHELBYVILLE    FAIR       0  -7  72 W10       30.48S WCI -16

$$

INZ033-034-041-042-049-050-058-059-161200-
EAST CENTRAL INDIANA

CITY           SKY/WX    TMP DP  RH WIND       PRES   REMARKS
MUNCIE         FAIR       1  -5  75 SW6       30.44R WCI -10
RICHMOND +     FAIR       1  -2  85 W8        30.43R WCI -12

$$

INZ060-061-067>069-081>083-085>088-161200-
SOUTHWEST INDIANA

CITY           SKY/WX    TMP DP  RH WIND       PRES   REMARKS
EVANSVILLE     FAIR       5  -3  69 NW8       30.60R WCI  -8
HUNTINGBURG +  FAIR       5  -2  72 NW8       30.57S WCI  -8

$$

INZ062-063-066-070>080-084-089>092-161200-
SOUTH CENTRAL AND SOUTHEAST INDIANA

CITY           SKY/WX    TMP DP  RH WIND       PRES   REMARKS
BLOOMINGTON    FAIR      -2  -7  79 W7        30.50S WCI -15
MADISON *+     MOCLDY     9   0  66 W5        30.52R WCI   0
SEYMOUR +      FAIR       7  -2  66 W10       30.53R WCI  -8

$$





USA.gov is the U.S. government's official web portal to all federal, state and local government web resources and services.